TITAN 34D TRANSTAGE DEB

基本信息
目录编号:
23040
目录名称:
TITAN 34D TRANSTAGE DEB
国际标识:
1988-077K
轨道中心:
EARTH
物体状态:
在轨
发射日期:
1988-09-02 UTC
轨道信息
数据来源: 国际轨道数据
星历时间: 2026-07-12T18:45:40+0800
半长轴: 25044.801km
偏心率: 0.7300503
轨道倾角: 27.239°
近地点辐角: 319.256°
升交点赤经: 17.190°
平近点角: 4.481°
近地点: 382.699km
远地点: 36950.629km
周期: 657.410分钟
每日圈数: 2.190415
详细信息
发射场:
AFETR
轨道高度:
LEO
数据来源:
AOE Integration Group
参考系:
TEME
时间系统:
UTC
历元类型:
SGP4
2D轨道图
3D轨道图
轨道高度分析图
轨道倾角分析图
轨道综合分析图
查看轨道综合分析图